Location: Ciserano
(45.5833°N, 9.6000°E)
Time: 01:37:36
(UTC+00:00)

SJ 16-02 - Pass Details

Date: 18 April 2021
Orbit: 605 x 617 km, 75.0° (Epoch: 10 May)

Event Time Altitude Azimuth Distance (km) Brightness Sun altitude
Exits shadow 23:56:03 10° 71° (ENE) 1,951 4.2 -32.7°
Drops below altitude 10° 23:56:10 10° 69° (ENE) 1,971 4.2 -32.7°
Sets 23:59:42 0° 40° (NE) 2,895 5.6 -32.6°
